Starlink 31304

operational
NORAD ID: 59231 Int'l Des: 2024-049 Owner: SPXS Country: US Constellation: starlink
LEOCIRCULAR

关于 Starlink 31304

正在加载描述...

实时位置

正在加载3D地球...

即将过境

高度历史

Altitude vs Time

uPlot chart will show altitude changes over time

两行轨道根数

1 59231U 24049A 25303.00487173 .00011859 00000-0 44037-3 0 9997
2 59231 43.0000 150.8535 0000308 250.5186 109.5632 15.27533215 92533
Epoch: Oct 30, 2025 • Age: 16 hours

当前状态

高度 483.7 km
速度 7.62 km/s
星下点 -4.97°S, 134.04°W
发射日期 Mar 16, 2024
运行时间 1.6 years
类型 internet

技术详情

分类 Payload
质量 730.00 kg
干质量 700.00 kg
总质量 730.00 kg
长度 0.30 m
直径 4.10 m
跨度 29.00 m
形状 Box + pan
制造商 SPXS
平台类型 Starlink V2M
阶段状态 In Orbit
所有者/国家 SPXS/US

大型星座

Loading constellations...